Location: Schommer Observatory
(40.5200°N, 74.4500°W)
Time: 00:06:09
(UTC-04:00)

OTV 5 (USA 277) - Pass Details

Date: 13 October 2017
Orbit: 404 x 417 km, 43.0° (Epoch: 07 September)

Event Time Altitude Azimuth Distance (km) Brightness Sun altitude
Rises 18:46:48 0° 248° (WSW) 2,347 ? -5.8°
Reaches altitude 10° 18:48:55 10° 247° (WSW) 1,487 ? -6.2°
Maximum altitude 18:52:16 78° 161° (SSE) 429 ? -6.8°
Drops below altitude 10° 18:55:38 10° 75° (ENE) 1,491 ? -7.5°
Enters shadow 18:55:43 10° 75° (ENE) 1,524 ? -7.5°
